This is the latest recevied weather packets stored in our database for station/object K5GTX. If no packets are shown the sender has not sent any weather packets the latest 10 day(s).
| Time | Temp. | Humidity | Pressure | Rain* | Wind** | Luminosity | Snow |
|---|---|---|---|---|---|---|---|
| 1777400997 | 28.89° C | 99% | 1017.3 hPa | 0 mm | - | 454 W/m² | - |
| 1777400693 | 28.33° C | 99% | 1017.6 hPa | 0 mm | - | 367 W/m² | - |
| 1777400391 | 28.33° C | 99% | 1017.3 hPa | 0 mm | - | 524 W/m² | - |
| 1777400086 | 28.33° C | 99% | 1017.4 hPa | 0 mm | - | 504 W/m² | - |
| 1777399784 | 28.33° C | 99% | 1017.4 hPa | 0 mm | - | 286 W/m² | - |
| 1777399480 | 28.33° C | 99% | 1017.7 hPa | 0 mm | - | 313 W/m² | - |
| 1777399178 | 28.33° C | 99% | 1017.6 hPa | 0 mm | - | 712 W/m² | - |
| 1777398875 | 28.33° C | 99% | 1017.8 hPa | 0 mm | - | 456 W/m² | - |
| 1777398572 | 28.33° C | 99% | 1017.7 hPa | 0 mm | - | 312 W/m² | - |
| 1777398268 | 27.78° C | 99% | 1018.1 hPa | 0 mm | - | 445 W/m² | - |
| 1777397966 | 27.78° C | 99% | 1017.9 hPa | 0 mm | - | 281 W/m² | - |
| 1777397661 | 27.78° C | 99% | 1018 hPa | 0 mm | - | 276 W/m² | - |
| 1777397358 | 27.78° C | 99% | 1018.1 hPa | 0 mm | - | 595 W/m² | - |
| 1777397055 | 27.78° C | 99% | 1018.1 hPa | 0 mm | - | 497 W/m² | - |
| 1777396751 | 27.22° C | 99% | 1018.3 hPa | 0 mm | - | 428 W/m² | - |
| 1777396448 | 27.22° C | 99% | 1018.2 hPa | 0 mm | - | 318 W/m² | - |
| 1777396145 | 26.67° C | 99% | 1018.5 hPa | 0 mm | - | 231 W/m² | - |
| 1777395841 | 26.11° C | 99% | 1018.4 hPa | 0 mm | - | 204 W/m² | - |
| 1777395536 | 26.67° C | 99% | 1018.5 hPa | 0 mm | - | 198 W/m² | - |
| 1777395233 | 26.11° C | 99% | 1018.5 hPa | 0 mm | - | 228 W/m² | - |
| 1777394930 | 26.67° C | 99% | 1018.7 hPa | 0 mm | - | 219 W/m² | - |
| 1777394626 | 26.11° C | 99% | 1018.8 hPa | 0 mm | - | 181 W/m² | - |
| 1777394323 | 26.11° C | 99% | 1018.7 hPa | 0 mm | - | 154 W/m² | - |
| 1777394019 | 26.11° C | 99% | 1018.6 hPa | 0 mm | - | 153 W/m² | - |
| 1777393719 | 25.56° C | 99% | 1018.9 hPa | 0 mm | - | 186 W/m² | - |
* Rain latest hour (hover to see other rain measurements)
** Current wind speed in m/s (hover to see current wind gust speed)